Brunswick, GA

11:51 AM EST on February 20, 2017 (GMT -0500)
Glynco Jetport

Weather History for KBQK - January, 2011

Change the Weather History Date:

Wednesday, January 5, 2011

  Actual Average Record
Temperature  
Mean Temperature 46 °F -  
Max Temperature 53 °F 62 °F 80 °F (2004)
Min Temperature 40 °F 41 °F 19 °F (2002)
Degree Days  
Heating Degree Days 18    
Moisture  
Dew Point 43 °F    
Average Humidity 90    
Maximum Humidity 100    
Minimum Humidity 67    
Precipitation  
Precipitation 0.00 in - - ()
Sea Level Pressure  
Sea Level Pressure 30.02 in    
Wind  
Wind Speed 2 mph (SW)    
Max Wind Speed 16 mph    
Max Gust Speed 17 mph    
Visibility 10 miles    
Events      
Averages and records for this station are not official NWS values.
T = Trace of Precipitation, MM = Missing Value Source: NWS Daily Summary

Daily Weather History Graph

Daily Weather History Graph

Search for Another Location

Airport or City:

Trip Planner

Search our weather history database for the weather conditions in past years. The results will help you decide how hot, cold, wet, or windy it might be!

Date:

Astronomy

Jan. 05, 2011 Rise Set
Actual Time 7:25 AM EST 5:37 PM EST
Civil Twilight 6:58 AM EST 6:03 PM EST
Nautical Twilight 6:28 AM EST 6:33 PM EST
Astronomical Twilight 5:59 AM EST 7:03 PM EST
Moon 8:13 AM EST (1/5) 7:06 PM EST (1/5)
Length of Visible Light 11h 05m
Length of Day
10h 11m
New Moon, 2% of the Moon is Illuminated
Jan 5
New Moon
Jan 12
First Quarter
Jan 19
Full
Jan 26
Last Quarter
Feb 2
New

Hourly Weather History & Observations

Time (EST) Temp. Windchill Dew Point Humidity Pressure Visibility Wind Dir Wind Speed Gust Speed Precip Events Conditions
12:17 AM 42.3 °F 40.5 °F 41.9 °F 99% 30.10 in 10.0 mi West 3.5 mph - N/A   Clear
12:37 AM 41.9 °F 39.0 °F 41.4 °F 98% 30.10 in 10.0 mi West 4.6 mph - N/A   Clear
12:57 AM 41.7 °F 38.8 °F 41.5 °F 99% 30.10 in 10.0 mi West 4.6 mph - N/A   Clear
1:17 AM 40.8 °F 38.8 °F 39.7 °F 96% 30.10 in 10.0 mi West 3.5 mph - N/A   Clear
1:37 AM 42.8 °F 41.1 °F 41.9 °F 97% 30.10 in 10.0 mi West 3.5 mph - N/A   Clear
1:57 AM 41.9 °F 40.0 °F 41.0 °F 97% 30.10 in 10.0 mi West 3.5 mph - N/A   Clear
2:17 AM 40.3 °F - 39.9 °F 99% 30.09 in 10.0 mi Calm Calm - N/A   Clear
2:37 AM 41.4 °F 39.4 °F 41.0 °F 99% 30.09 in 10.0 mi West 3.5 mph - N/A   Clear
2:57 AM 41.2 °F - 41.0 °F 99% 30.09 in 10.0 mi Calm Calm - N/A   Clear
3:17 AM 41.2 °F 39.2 °F 41.0 °F 99% 30.09 in 10.0 mi West 3.5 mph - N/A   Clear
3:37 AM 41.0 °F - 41.0 °F 100% 30.08 in 10.0 mi Calm Calm - N/A   Clear
3:57 AM 41.9 °F 40.0 °F 41.5 °F 99% 30.09 in 10.0 mi West 3.5 mph - N/A   Clear
4:17 AM 43.3 °F 41.7 °F 41.4 °F 93% 30.09 in 10.0 mi WNW 3.5 mph - N/A   Clear
4:37 AM 44.6 °F - 41.0 °F 87% 30.08 in 10.0 mi Calm Calm - N/A   Clear
4:57 AM 41.9 °F - 40.6 °F 95% 30.07 in 10.0 mi Calm Calm - N/A   Clear
5:17 AM 43.2 °F 41.5 °F 41.4 °F 93% 30.08 in 10.0 mi WNW 3.5 mph - N/A   Clear
5:37 AM 43.7 °F - 40.1 °F 87% 30.06 in 10.0 mi Calm Calm - N/A   Clear
5:57 AM 42.3 °F - 40.1 °F 92% 30.06 in 10.0 mi Calm Calm - N/A   Clear
6:17 AM 41.4 °F - 40.5 °F 97% 30.06 in 10.0 mi Calm Calm - N/A   Clear
6:37 AM 41.2 °F - 40.6 °F 98% 30.08 in 10.0 mi Calm Calm - N/A   Clear
6:57 AM 41.7 °F - 40.3 °F 95% 30.08 in 10.0 mi Calm Calm - N/A   Clear
7:17 AM 41.0 °F - 40.3 °F 97% 30.08 in 10.0 mi Calm Calm - N/A   Scattered Clouds
7:37 AM 41.4 °F - 40.5 °F 97% 30.08 in 10.0 mi Calm Calm - N/A   Scattered Clouds
7:57 AM 42.3 °F - 41.7 °F 98% 30.08 in 10.0 mi Calm Calm - N/A   Mostly Cloudy
8:17 AM 44.4 °F - 43.2 °F 95% 30.07 in 10.0 mi Calm Calm - N/A   Scattered Clouds
8:37 AM 46.4 °F - 42.8 °F 87% 30.06 in 10.0 mi Calm Calm - N/A   Scattered Clouds
8:57 AM 46.4 °F - 42.8 °F 87% 30.07 in 10.0 mi Calm Calm - N/A   Scattered Clouds
9:17 AM 47.5 °F - 43.2 °F 85% 30.06 in 10.0 mi Calm Calm - N/A   Overcast
9:37 AM 49.1 °F - 42.4 °F 78% 30.07 in 10.0 mi Calm Calm - N/A   Overcast
9:57 AM 49.5 °F - 43.0 °F 78% 30.08 in 10.0 mi Calm Calm - N/A   Overcast
10:17 AM 49.8 °F - 43.2 °F 78% 30.08 in 10.0 mi Calm Calm - N/A   Overcast
10:37 AM 50.4 °F - 42.6 °F 75% 30.07 in 10.0 mi Calm Calm - N/A   Overcast
10:57 AM 51.1 °F - 42.4 °F 72% 30.06 in 10.0 mi Calm Calm - N/A   Overcast
11:17 AM 51.8 °F - 42.1 °F 69% 30.07 in 10.0 mi Calm Calm - N/A   Overcast
11:37 AM 52.2 °F - 43.9 °F 73% 30.01 in 10.0 mi ESE 5.8 mph - N/A   Overcast
11:57 AM 52.5 °F - 45.1 °F 76% 30.03 in 10.0 mi Calm Calm - N/A   Overcast
12:17 PM 51.8 °F - 45.7 °F 80% 30.00 in 10.0 mi Calm Calm - N/A   Overcast
12:37 PM 52.0 °F - 45.3 °F 78% 30.00 in 10.0 mi Calm Calm - N/A   Overcast
12:57 PM 53.6 °F - 43.0 °F 67% 30.03 in 10.0 mi WSW 6.9 mph - N/A   Overcast
1:17 PM 53.4 °F - 44.1 °F 71% 30.00 in 10.0 mi Calm Calm - N/A   Overcast
1:37 PM 53.2 °F - 44.8 °F 73% 29.99 in 10.0 mi SE 3.5 mph - N/A   Overcast
1:57 PM 53.1 °F - 44.8 °F 73% 29.98 in 10.0 mi Calm Calm - N/A   Overcast
2:17 PM 51.6 °F - 46.8 °F 83% 29.97 in 10.0 mi Calm Calm - N/A   Overcast
2:37 PM 51.6 °F - 46.9 °F 84% 29.95 in 10.0 mi SSE 10.4 mph - N/A   Overcast
2:57 PM 50.5 °F - 47.3 °F 89% 29.97 in 2.5 mi Calm Calm - N/A   Overcast
3:17 PM 49.1 °F - 46.6 °F 91% 29.98 in 5.0 mi Calm Calm - N/A   Overcast
3:37 PM 48.2 °F - 46.9 °F 95% 29.97 in 4.0 mi Calm Calm - N/A   Overcast
3:57 PM 47.7 °F - 46.0 °F 94% 29.88 in 7.0 mi SSE 16.1 mph - N/A   Overcast
4:17 PM 47.5 °F - 46.0 °F 95% 29.84 in 10.0 mi SE 10.4 mph 17.3 mph N/A   Overcast
4:37 PM 48.2 °F - 46.8 °F 95% 29.88 in 10.0 mi Calm Calm - N/A   Scattered Clouds
4:57 PM 49.1 °F - 47.5 °F 94% 29.89 in 10.0 mi Calm Calm - N/A   Clear
5:17 PM 48.2 °F - 47.3 °F 97% 29.90 in 10.0 mi Calm Calm - N/A   Mostly Cloudy
5:37 PM 47.8 °F - 47.3 °F 98% 29.90 in 10.0 mi Calm Calm - N/A   Mostly Cloudy
5:57 PM 47.7 °F - 47.3 °F 99% 29.88 in 10.0 mi Calm Calm - N/A   Scattered Clouds
6:17 PM 47.7 °F - 47.3 °F 99% 29.87 in 10.0 mi South 4.6 mph - N/A   Clear
6:37 PM 47.8 °F - 47.3 °F 98% 29.88 in 10.0 mi South 4.6 mph - N/A   Clear
6:57 PM 47.8 °F - 47.3 °F 98% 29.88 in 10.0 mi SSW 4.6 mph - N/A   Clear
7:17 PM 47.7 °F - 47.1 °F 98% 29.87 in 10.0 mi SSW 3.5 mph - N/A   Clear
7:37 PM 47.7 °F - 47.3 °F 99% 29.86 in 10.0 mi SSW 4.6 mph - N/A   Clear
7:57 PM 47.7 °F - 47.3 °F 99% 29.85 in 10.0 mi SSW 4.6 mph - N/A   Clear
8:17 PM 47.8 °F - 47.3 °F 98% 29.85 in 10.0 mi SSW 5.8 mph - N/A   Clear
8:57 PM 48.2 °F - 47.7 °F 98% 29.82 in 10.0 mi SW 3.5 mph - N/A   Scattered Clouds
9:17 PM 48.2 °F - 47.7 °F 98% 29.84 in 10.0 mi WSW 5.8 mph - N/A   Clear
9:37 PM 48.6 °F - 48.2 °F 99% 29.82 in 10.0 mi SSW 6.9 mph - N/A   Scattered Clouds
9:57 PM 48.7 °F - 48.2 °F 98% 29.81 in 10.0 mi SW 4.6 mph - N/A   Mostly Cloudy
10:17 PM 49.1 °F - 48.6 °F 98% 29.81 in 7.0 mi WSW 6.9 mph - N/A   Overcast
10:37 PM 49.1 °F - 48.6 °F 98% 29.80 in 10.0 mi SW 5.8 mph - N/A   Overcast
10:57 PM 49.1 °F - 48.6 °F 98% 29.78 in 10.0 mi WSW 5.8 mph - N/A   Overcast
11:17 PM 49.3 °F - 49.1 °F 99% 29.78 in 7.0 mi WSW 8.1 mph - N/A   Overcast
11:37 PM 49.5 °F - 49.1 °F 99% 29.78 in 7.0 mi West 6.9 mph - N/A   Overcast
11:57 PM 49.6 °F - 49.5 °F 99% 29.78 in 7.0 mi WSW 6.9 mph - N/A   Overcast